SCP
0 0 0 0 0 0 0 0 0 0 0 0 0 0 0 0 0 0 0 0 0 0 0 0 0 0 0 0 0 0 0 0 0 0 0 0 1 1
0 0 0 0 0 0 0 0 0 0 0 0 0 0 0 0 0 0 0 0 0 0 0 0 0 0 0 0 0 0 0 0 0 0 0 0 0 1
0 0 0 0 0 0 0 0 0 0 0 0 0 0 0 0 0 0 0 0 0 0 0 0 0 0 0 0 0 0 0 0 0 0 0 0 0 0
0 0 0 0 0 0 0 0 0 0 0 0 0 0 0 0 0 0 0 0 0 0 0 0 0 0 0 0 0 0 0 0 0 0 0 0 0 0
0 0 0 0 0 0 0 0 0 0 0 0 0 0 0 0 0 0 0 0 0 0 0 0 0 0 0 0 0 0 0 0 0 0 0 0 0 0
0 0 0 0 0 0 0 0 0 0 0 0 0 0 0 0 0 0 0 0 0 0 0 0 0 0 0 0 0 0 0 0 0 0 0 0 0 0
1 1 0 0 0 0 0 0 0 0 0 0 0 0 0 0 0 0 0 0 0 0 0 0 0 0 0 0 0 0 0 0 0 0 0 0 0 0
1 1 1 0 0 0 0 0 0 0 0 0 0 0 0 0 0 0 0 0 0 0 0 0 0 0 0 0 0 0 0 0 0 0 0 0 0 0
1 1 1 0 0 0 0 0 0 0 0 0 0 0 0 0 0 0 0 0 0 0 0 0 0 0 0 0 0 0 0 0 0 0 0 0 0 0
0 1 1 0 0 0 0 0 0 0 0 0 0 0 0 0 0 0 0 0 0 0 0 0 0 0 0 0 0 0 0 0 0 0 0 0 0 0
0 0 0 0 0 0 0 0 0 0 0 0 0 0 0 0 0 0 0 0 0 0 0 0 0 0 0 0 0 0 0 0 0 0 0 0 0 0
0 0 0 0 0 0 0 0 0 0 0 0 0 0 0 0 0 0 0 0 0 0 0 0 0 0 0 0 0 0 0 0 0 0 0 0 0 0
0 0 0 0 0 0 0 0 0 0 0 0 0 0 0 0 0 0 0 0 0 0 0 0 0 0 0 0 0 0 0 0 0 0 0 0 0 0
0 0 0 0 0 0 0 0 0 0 0 0 0 0 0 0 0 0 0 0 0 0 0 0 0 0 0 0 0 0 0 0 0 0 0 0 0 0
0 0 0 0 0 0 0 0 0 0 0 0 0 0 0 0 0 0 0 0 0 0 0 0 0 0 0 0 0 0 0 0 0 0 0 0 0 0
0 0 0 0 0 0 0 0 0 0 0 0 0 0 0 0 0 0 0 0 0 0 0 0 0 0 0 0 0 0 0 0 0 0 0 0 0 0
0 0 0 0 0 0 0 0 0 0 0 0 0 0 0 0 0 0 0 0 0 0 0 0 0 0 0 0 0 0 0 0 0 0 0 0 0 0
0 0 0 0 0 0 0 0 0 0 0 0 0 0 0 0 0 0 0 0 0 0 0 0 0 0 0 0 0 0 0 0 0 0 0 0 0 0
0 0 0 0 0 0 0 0 0 0 0 0 0 0 0 0 0 0 0 0 0 0 0 0 0 0 0 0 0 0 0 0 0 0 0 0 0 0
0 0 0 0 0 0 0 0 0 0 0 0 0 0 0 0 0 0 0 0 0 0 0 0 0 0 0 0 0 0 0 0 0 0 0 0 0 0
0 0 0 0 0 0 0 0 0 0 0 0 0 0 0 0 0 0 0 0 0 0 0 0 0 0 0 0 0 0 0 0 0 0 0 0 0 0
0 0 0 0 0 0 0 0 0 0 0 0 0 0 0 0 0 0 0 0 0 0 0 0 0 0 0 0 0 0 0 0 0 0 0 0 0 0
0 0 0 0 0 0 0 0 0 0 0 0 0 0 0 0 0 0 0 0 0 0 0 0 0 0 0 0 0 0 0 0 0 0 0 0 0 0
Wind_Speed
3 2 2 1 1 1 1 1 2 2 3 2 1 1 1 1 3 3 3 6 8 8 9 9 9 10 10 10 10 11 11 12 12 13 14 14 14 14
2 2 1 1 0 0 1 1 1 2 3 2 1 1 2 2 4 3 3 7 8 9 9 9 9 9 10 9 10 10 11 12 12 12 13 14 14 14
2 3 2 1 1 1 1 1 1 1 3 3 2 2 2 3 3 3 3 3 4 8 9 9 8 9 9 9 10 10 11 11 11 11 12 13 13 13
3 3 3 2 2 1 1 1 1 1 2 4 3 2 3 3 3 4 4 4 3 7 8 8 8 8 8 9 10 10 10 11 11 11 12 12 12 13
3 3 3 2 2 1 1 1 1 1 1 2 3 2 2 3 3 4 4 4 4 6 7 8 8 9 9 9 9 9 9 10 10 11 11 12 12 12
3 3 2 3 3 2 1 1 1 1 1 2 3 2 2 3 2 3 4 3 4 5 5 7 8 10 9 9 8 8 9 9 10 11 11 11 11 11
3 2 2 2 2 1 1 1 1 1 1 2 3 3 3 2 3 2 4 4 4 3 3 4 5 4 5 6 7 9 9 10 10 11 11 11 11 11
3 2 2 2 2 1 1 1 1 2 2 2 3 3 4 3 3 3 3 4 4 3 4 5 3 4 4 3 8 10 10 10 11 11 11 11 11 12
3 2 1 2 1 1 1 1 2 3 4 3 3 4 4 3 3 3 3 4 4 4 4 5 3 4 4 6 10 10 10 10 11 11 11 12 12 11
2 2 2 2 1 1 1 0 1 2 3 2 3 3 3 3 3 4 4 4 4 3 2 4 4 4 4 4 8 8 9 11 11 12 12 12 11 11
1 1 1 1 2 1 1 1 2 2 3 4 4 4 5 6 5 2 2 3 4 3 1 2 3 4 4 3 5 8 10 11 12 12 12 12 11 10
1 1 1 1 2 2 1 1 2 2 2 3 3 4 4 4 5 2 2 3 3 3 1 2 3 3 4 3 3 3 5 9 12 13 13 12 11 5
1 0 0 0 2 3 2 1 3 3 1 2 2 2 2 2 2 2 2 2 3 3 2 2 3 3 3 5 4 3 3 4 5 7 10 11 11 8
1 0 0 1 3 3 3 2 3 3 1 1 2 2 2 2 2 3 3 3 3 4 3 2 3 3 4 5 5 4 4 4 4 4 4 9 9 11
0 0 2 2 3 2 2 3 3 1 1 1 2 2 2 3 3 3 3 3 3 3 3 3 3 3 4 4 5 5 5 4 3 3 4 4 4 4
1 1 2 2 2 2 2 2 1 1 1 1 2 2 2 2 2 2 3 3 3 3 3 3 3 3 4 5 5 5 4 4 4 5 5 4 4 3
1 1 1 1 1 1 1 1 1 1 1 1 2 2 2 2 3 2 2 2 2 3 4 3 3 3 4 4 4 4 4 4 4 4 5 5 5 4
1 0 0 1 1 1 1 1 1 1 1 1 2 2 2 3 3 3 2 2 3 3 3 3 4 4 3 2 4 4 3 3 4 4 4 5 6 5
1 0 1 1 1 1 1 1 1 1 1 1 2 2 2 3 3 3 3 3 3 3 3 3 3 3 4 5 4 2 3 4 5 5 4 4 6 6
1 1 1 1 1 1 1 1 1 1 1 1 2 2 2 2 3 3 3 3 3 4 4 3 2 2 3 4 4 5 6 4 4 5 5 4 5 8
1 1 1 1 1 1 1 1 1 2 2 2 2 2 2 2 3 3 3 5 4 3 4 4 4 6 3 2 3 4 4 6 6 5 5 5 5 5
1 1 1 1 1 1 1 1 2 2 2 2 2 2 2 2 3 4 3 3 3 3 4 4 4 3 2 3 5 5 6 6 7 9 8 6 4 4
1 1 1 1 1 1 1 2 2 3 2 2 2 2 2 2 3 3 3 3 3 3 4 4 3 3 3 3 4 5 6 6 5 5 5 8 10 11
Wind_Direction
174 171 182 201 188 167 163 178 187 246 266 254 265 291 331 309 303 299 287 306 307 306 305 306 306 307 307 308 308 310 312 314 313 308 307 306 306 306
161 156 168 186 182 169 185 224 198 212 253 261 259 289 306 309 306 300 287 304 297 300 303 306 307 308 307 308 310 310 312 313 313 308 305 306 305 305
166 163 174 179 177 189 205 220 236 218 255 283 295 305 305 303 309 300 294 288 287 298 303 308 310 311 312 312 312 313 313 313 312 312 312 311 311 309
172 168 182 180 184 191 191 217 238 231 237 274 294 305 302 300 298 304 309 311 298 300 306 309 308 308 311 313 312 314 316 315 314 314 314 315 315 313
171 174 183 180 197 194 190 218 246 261 247 256 280 293 297 309 311 311 312 307 308 312 313 311 310 310 310 309 314 317 318 317 317 317 317 317 317 316
166 174 182 188 194 196 202 213 241 258 253 259 274 287 295 303 309 309 312 310 311 319 315 316 314 312 308 306 311 315 317 317 318 318 317 316 316 314
167 176 184 185 198 217 228 210 206 240 253 262 273 286 292 303 301 299 302 308 306 311 314 309 308 306 305 306 308 312 317 319 319 319 320 320 317 313
163 167 171 175 188 234 264 262 241 229 238 249 270 276 286 292 297 299 303 317 308 318 318 303 303 299 301 301 316 317 317 319 321 320 319 319 318 316
164 170 179 182 177 192 237 315 311 293 272 255 254 266 280 286 290 289 289 292 287 300 311 295 298 296 302 311 318 320 319 321 323 321 318 317 315 313
155 167 173 180 195 195 188 271 281 293 285 270 242 256 266 273 264 270 279 290 285 291 305 290 300 298 308 305 310 321 330 330 327 325 324 321 318 317
126 138 148 163 212 250 203 250 281 290 304 302 297 302 308 313 312 311 306 305 304 302 297 289 303 310 303 294 312 330 331 329 329 329 329 327 325 325
113 126 178 214 251 279 238 229 261 276 296 312 313 319 316 319 325 309 282 286 299 299 311 319 309 325 312 296 307 323 324 324 328 330 330 329 329 326
135 133 166 299 308 301 300 262 271 293 297 298 298 305 311 313 313 306 295 282 281 279 302 321 308 311 293 301 305 306 313 318 322 322 326 328 327 328
149 138 227 314 319 321 324 309 314 329 321 312 311 317 319 317 309 304 299 290 276 274 284 292 285 293 297 297 299 309 312 309 314 316 318 323 325 325
62 326 323 328 339 345 334 327 340 349 321 308 304 306 307 303 308 310 313 306 304 299 293 286 283 288 283 284 293 300 309 310 313 320 320 320 318 320
56 34 360 353 353 349 346 352 359 327 316 295 301 306 314 316 315 313 314 321 322 316 304 295 288 284 285 284 284 292 296 299 313 317 315 313 309 305
28 45 36 357 352 358 4 354 356 353 342 320 313 317 319 318 316 318 316 321 318 316 322 325 313 287 271 273 283 284 291 297 300 311 318 314 308 306
39 111 256 268 269 289 310 324 331 327 315 310 314 314 315 316 318 321 321 320 315 313 314 319 326 327 319 293 256 275 290 295 306 314 314 310 308 309
64 42 264 261 270 278 283 290 300 307 307 307 312 314 314 314 317 318 319 318 317 313 308 307 319 329 325 314 301 291 304 310 312 310 307 303 299 304
34 349 315 311 304 292 285 286 295 304 308 306 301 302 305 307 310 311 311 311 311 311 311 308 308 308 296 292 294 299 307 298 298 302 305 300 290 294
355 341 323 311 308 301 293 291 292 290 292 292 289 292 296 300 301 303 303 310 312 307 306 305 297 311 298 293 295 297 300 308 306 298 302 306 308 306
335 324 315 307 302 295 292 292 288 284 285 282 284 286 286 287 291 296 299 303 304 301 300 301 307 314 315 308 304 304 308 313 315 315 303 289 293 300
319 311 305 301 296 293 288 284 279 278 277 274 274 278 282 285 285 288 293 298 301 306 311 313 319 318 309 299 300 303 306 312 318 322 310 306 302 294